Portada
METAR-TAF:

METAR-TAF

Aeroports :

Nueva Loja, Equador

latitud: 00-05-33N, longitud: 076-52-10W, altitud: 299 m

Observació

L'informe es va fer fa 12 hores i 32 minuts, a les 00:00 UTC
Vent 2 kt del Sud-Oest
Temperatura 24°C
Humitat 100%
Pressió 1013 hPa
Visibilitat 10 km o més
Núvols disperses a una alçada de 2000 ft
Cel ennuvolat a una alçada de 10000 ft

METAR: SENL 140000Z 22002KT 9999 SCT020 BKN100 24/24 Q1013 RMK A2994

Hora: 07:32 (12:32 UTC)


TAF: manca

Observacions i pronòstics meteorològics de més de 4000 aeroports (METAR i TAF).

Les estacions disponibles són els punts grocs i vermells al mapa.

Posi el ratolí al punt desitjat per veure el nom de l'estació.

Feu clic per veure les observacions i els pronòstics meteorològics.

Per canviar el mapa: feu clic els botons verds amb una creu de color negre per apropar; al botó verd amb un guió per allunyar la imatge; o en les fletxes verdes per a mapes adjacents.


METAR-TAF: